Location: Unspecified
(0.0000°N, 0.0000°E)
Time: 21:04:00
(UTC+00:00)

Explorer 7 - Pass Details

Date: 16 June 2025
Orbit: 444 x 569 km, 50.3° (Epoch: 12 July)

Event Time Altitude Azimuth Distance (km) Brightness Sun altitude
Rises 00:28:13 0° 331° (NNW) 2,494 - -65.7°
Reaches altitude 10° 00:30:21 10° 336° (NNW) 1,640 - -65.6°
Maximum altitude 00:33:59 54° 54° (NE) 602 - -65.3°
Drops below altitude 10° 00:37:48 10° 131° (SE) 1,723 - -65.0°
Sets 00:40:05 0° 136° (SE) 2,635 - -64.8°
